Time,TemperatureF,DewpointF,PressureIn,WindDirection,WindDirectionDegrees,WindSpeedMPH,WindSpeedGustMPH,Humidity,HourlyPrecipIn,Conditions,Clouds,dailyrainin,SoftwareType,DateUTC
2015-05-23 00:00:00,55.0,49.6,30.05,NE,49,2.0,3.0,82,0.00,,---,0.14,VWS V14.01,2015-05-23 07:00:00,
2015-05-23 00:05:00,54.9,49.5,30.05,NE,55,3.0,4.0,82,0.00,,---,0.00,VWS V14.01,2015-05-23 07:05:00,
2015-05-23 00:10:00,54.8,49.4,30.05,ENE,58,0.0,4.0,82,0.00,,---,0.00,VWS V14.01,2015-05-23 07:10:00,
2015-05-23 00:15:00,54.8,49.4,30.04,ENE,58,0.0,4.0,82,0.00,,---,0.00,VWS V14.01,2015-05-23 07:15:00,
2015-05-23 00:20:00,54.6,49.2,30.04,NE,51,0.0,3.0,82,0.00,,---,0.00,VWS V14.01,2015-05-23 07:20:00,
2015-05-23 00:25:00,54.5,49.1,30.04,NE,36,0.0,3.0,82,0.00,,---,0.00,VWS V14.01,2015-05-23 07:25:00,
2015-05-23 00:30:00,54.4,49.0,30.04,NE,41,2.0,3.0,82,0.00,,---,0.00,VWS V14.01,2015-05-23 07:30:00,
2015-05-23 00:35:00,54.2,48.8,30.04,NE,42,0.0,4.0,82,0.00,,---,0.00,VWS V14.01,2015-05-23 07:35:00,
2015-05-23 00:40:00,54.1,49.1,30.04,NE,41,0.0,4.0,83,0.00,,---,0.00,VWS V14.01,2015-05-23 07:40:00,
2015-05-23 00:45:00,53.9,48.9,30.04,NE,42,0.0,4.0,83,0.00,,---,0.00,VWS V14.01,2015-05-23 07:45:00,
2015-05-23 00:50:00,53.8,48.8,30.05,NE,42,0.0,0.0,83,0.00,,---,0.00,VWS V14.01,2015-05-23 07:50:00,
2015-05-23 00:55:00,53.7,48.7,30.05,NE,41,0.0,2.0,83,0.00,,---,0.00,VWS V14.01,2015-05-23 07:55:00,
2015-05-23 01:00:00,53.5,48.5,30.05,NE,42,0.0,2.0,83,0.00,,---,0.00,VWS V14.01,2015-05-23 08:00:00,
2015-05-23 01:05:00,53.3,48.3,30.05,NE,42,0.0,0.0,83,0.00,,---,0.00,VWS V14.01,2015-05-23 08:05:00,
2015-05-23 01:10:00,53.3,48.3,30.05,NE,42,0.0,0.0,83,0.00,,---,0.00,VWS V14.01,2015-05-23 08:10:00,
2015-05-23 01:15:00,53.3,48.6,30.05,NE,42,0.0,0.0,84,0.00,,---,0.00,VWS V14.01,2015-05-23 08:15:00,
2015-05-23 01:20:00,53.3,48.6,30.05,NE,42,0.0,0.0,84,0.00,,---,0.00,VWS V14.01,2015-05-23 08:20:00,
2015-05-23 01:25:00,53.3,48.6,30.05,NE,42,0.0,0.0,84,0.00,,---,0.00,VWS V14.01,2015-05-23 08:25:00,
2015-05-23 01:30:00,53.4,48.7,30.05,NE,42,0.0,0.0,84,0.00,,---,0.00,VWS V14.01,2015-05-23 08:30:00,
2015-05-23 01:35:00,53.5,48.8,30.05,NE,42,0.0,0.0,84,0.00,,---,0.00,VWS V14.01,2015-05-23 08:35:00,
2015-05-23 01:40:00,53.6,48.9,30.05,NE,42,0.0,0.0,84,0.00,,---,0.00,VWS V14.01,2015-05-23 08:40:00,
2015-05-23 01:45:00,53.7,49.0,30.05,NE,42,0.0,0.0,84,0.00,,---,0.00,VWS V14.01,2015-05-23 08:45:00,
2015-05-23 01:50:00,53.8,49.1,30.05,NE,42,0.0,0.0,84,0.00,,---,0.00,VWS V14.01,2015-05-23 08:50:00,
2015-05-23 01:55:00,53.8,49.1,30.05,NE,41,0.0,0.0,84,0.00,,---,0.00,VWS V14.01,2015-05-23 08:55:00,
2015-05-23 02:00:00,53.7,49.0,30.05,NE,42,0.0,2.0,84,0.00,,---,0.00,VWS V14.01,2015-05-23 09:00:00,
2015-05-23 02:05:00,53.7,49.0,30.05,NE,42,0.0,0.0,84,0.00,,---,0.00,VWS V14.01,2015-05-23 09:05:00,
2015-05-23 02:10:00,53.7,49.0,30.05,NE,42,1.0,2.0,84,0.00,,---,0.00,VWS V14.01,2015-05-23 09:10:00,
2015-05-23 02:15:00,53.8,49.1,30.04,NE,42,0.0,3.0,84,0.00,,---,0.00,VWS V14.01,2015-05-23 09:15:00,
2015-05-23 02:20:00,53.8,48.8,30.04,NE,42,0.0,3.0,83,0.00,,---,0.00,VWS V14.01,2015-05-23 09:20:00,
2015-05-23 02:25:00,53.8,48.8,30.04,NE,42,0.0,3.0,83,0.00,,---,0.00,VWS V14.01,2015-05-23 09:25:00,
2015-05-23 02:30:00,53.8,48.8,30.04,NE,42,0.0,3.0,83,0.00,,---,0.00,VWS V14.01,2015-05-23 09:30:00,
2015-05-23 02:35:00,53.8,48.8,30.04,NE,42,0.0,1.0,83,0.00,,---,0.00,VWS V14.01,2015-05-23 09:35:00,
2015-05-23 02:40:00,53.7,48.7,30.04,NE,42,0.0,1.0,83,0.00,,---,0.00,VWS V14.01,2015-05-23 09:40:00,
2015-05-23 02:45:00,53.8,48.8,30.04,NE,42,0.0,1.0,83,0.00,,---,0.00,VWS V14.01,2015-05-23 09:45:00,
2015-05-23 02:50:00,53.8,48.8,30.04,NE,42,0.0,0.0,83,0.00,,---,0.00,VWS V14.01,2015-05-23 09:50:00,
2015-05-23 02:55:00,53.8,48.4,30.04,NE,42,0.0,0.0,82,0.00,,---,0.00,VWS V14.01,2015-05-23 09:55:00,
2015-05-23 03:00:00,53.8,48.4,30.04,NE,42,0.0,0.0,82,0.00,,---,0.00,VWS V14.01,2015-05-23 10:00:00,
2015-05-23 03:05:00,53.8,48.4,30.04,NE,41,0.0,0.0,82,0.00,,---,0.00,VWS V14.01,2015-05-23 10:05:00,
2015-05-23 03:10:00,53.9,48.9,30.04,NE,42,0.0,0.0,83,0.00,,---,0.00,VWS V14.01,2015-05-23 10:10:00,
2015-05-23 03:15:00,53.9,48.9,30.04,NE,42,0.0,0.0,83,0.00,,---,0.00,VWS V14.01,2015-05-23 10:15:00,
2015-05-23 03:20:00,53.9,48.9,30.04,NE,42,0.0,0.0,83,0.00,,---,0.00,VWS V14.01,2015-05-23 10:20:00,
2015-05-23 03:25:00,54.0,49.0,30.05,NE,42,0.0,0.0,83,0.00,,---,0.00,VWS V14.01,2015-05-23 10:25:00,
2015-05-23 03:30:00,54.0,49.0,30.05,NE,42,0.0,0.0,83,0.00,,---,0.00,VWS V14.01,2015-05-23 10:30:00,
2015-05-23 03:35:00,54.1,49.1,30.04,NE,42,0.0,0.0,83,0.00,,---,0.00,VWS V14.01,2015-05-23 10:35:00,
2015-05-23 03:40:00,54.1,49.1,30.05,NE,41,0.0,0.0,83,0.00,,---,0.00,VWS V14.01,2015-05-23 10:40:00,
2015-05-23 03:45:00,54.2,49.2,30.04,NE,42,0.0,0.0,83,0.00,,---,0.00,VWS V14.01,2015-05-23 10:45:00,
2015-05-23 03:50:00,54.2,49.2,30.05,NE,41,0.0,0.0,83,0.00,,---,0.00,VWS V14.01,2015-05-23 10:50:00,
2015-05-23 03:55:00,54.3,49.3,30.04,NE,42,0.0,0.0,83,0.00,,---,0.00,VWS V14.01,2015-05-23 10:55:00,
2015-05-23 04:00:00,54.4,49.3,30.04,NE,41,0.0,0.0,83,0.00,,---,0.00,VWS V14.01,2015-05-23 11:00:00,
2015-05-23 04:05:00,54.4,49.3,30.04,NE,42,0.0,0.0,83,0.00,,---,0.00,VWS V14.01,2015-05-23 11:05:00,
2015-05-23 04:10:00,54.4,49.3,30.04,NE,42,0.0,3.0,83,0.00,,---,0.00,VWS V14.01,2015-05-23 11:10:00,
2015-05-23 04:15:00,54.4,49.3,30.05,NE,41,0.0,3.0,83,0.00,,---,0.00,VWS V14.01,2015-05-23 11:15:00,
2015-05-23 04:20:00,54.4,49.0,30.04,NE,42,0.0,0.0,82,0.00,,---,0.00,VWS V14.01,2015-05-23 11:20:00,
2015-05-23 04:25:00,54.4,49.0,30.05,NE,42,0.0,0.0,82,0.00,,---,0.00,VWS V14.01,2015-05-23 11:25:00,
2015-05-23 04:30:00,54.4,49.0,30.05,NE,42,0.0,0.0,82,0.00,,---,0.00,VWS V14.01,2015-05-23 11:30:00,
2015-05-23 04:35:00,54.5,49.1,30.05,NE,42,0.0,0.0,82,0.00,,---,0.00,VWS V14.01,2015-05-23 11:35:00,
2015-05-23 04:40:00,54.5,49.1,30.04,NE,42,0.0,0.0,82,0.00,,---,0.00,VWS V14.01,2015-05-23 11:40:00,
2015-05-23 04:45:00,54.5,49.1,30.04,NE,42,0.0,0.0,82,0.00,,---,0.00,VWS V14.01,2015-05-23 11:45:00,
2015-05-23 04:50:00,54.6,49.5,30.04,NE,42,0.0,0.0,83,0.00,,---,0.00,VWS V14.01,2015-05-23 11:50:00,
2015-05-23 04:55:00,54.7,49.7,30.04,NE,42,0.0,0.0,83,0.00,,---,0.00,VWS V14.01,2015-05-23 11:55:00,
2015-05-23 05:00:00,54.8,49.7,30.04,NE,42,0.0,0.0,83,0.00,,---,0.00,VWS V14.01,2015-05-23 12:00:00,
2015-05-23 05:05:00,54.8,49.7,30.04,NE,42,0.0,2.0,83,0.00,,---,0.00,VWS V14.01,2015-05-23 12:05:00,
2015-05-23 05:10:00,54.9,49.8,30.04,ENE,58,0.0,3.0,83,0.00,,---,0.00,VWS V14.01,2015-05-23 12:10:00,
2015-05-23 05:15:00,54.9,49.8,30.04,ENE,59,0.0,3.0,83,0.00,,---,0.00,VWS V14.01,2015-05-23 12:15:00,
2015-05-23 05:20:00,54.9,49.8,30.04,ENE,57,0.0,0.0,83,0.00,,---,0.00,VWS V14.01,2015-05-23 12:20:00,
2015-05-23 05:25:00,54.9,49.8,30.04,ENE,59,0.0,0.0,83,0.00,,---,0.00,VWS V14.01,2015-05-23 12:25:00,
2015-05-23 05:30:00,54.9,49.8,30.04,ENE,57,0.0,0.0,83,0.00,,---,0.00,VWS V14.01,2015-05-23 12:30:00,
2015-05-23 05:35:00,54.9,49.8,30.04,ENE,58,0.0,0.0,83,0.00,,---,0.00,VWS V14.01,2015-05-23 12:35:00,
2015-05-23 05:40:00,54.9,50.2,30.04,ENE,57,0.0,0.0,84,0.00,,---,0.00,VWS V14.01,2015-05-23 12:40:00,
2015-05-23 05:45:00,54.9,50.2,30.04,ENE,57,0.0,0.0,84,0.00,,---,0.00,VWS V14.01,2015-05-23 12:45:00,
2015-05-23 05:50:00,54.9,50.2,30.04,ENE,59,0.0,0.0,84,0.00,,---,0.00,VWS V14.01,2015-05-23 12:50:00,
2015-05-23 05:55:00,54.9,50.2,30.04,ENE,59,0.0,0.0,84,0.00,,---,0.00,VWS V14.01,2015-05-23 12:55:00,
2015-05-23 06:00:00,54.8,50.1,30.04,ENE,57,0.0,0.0,84,0.00,,---,0.00,VWS V14.01,2015-05-23 13:00:00,
2015-05-23 06:05:00,54.9,50.2,30.05,ENE,59,0.0,0.0,84,0.00,,---,0.00,VWS V14.01,2015-05-23 13:05:00,
2015-05-23 06:10:00,54.9,50.2,30.05,ENE,58,0.0,0.0,84,0.00,,---,0.00,VWS V14.01,2015-05-23 13:10:00,
2015-05-23 06:15:00,54.9,50.2,30.05,ENE,57,0.0,0.0,84,0.00,,---,0.00,VWS V14.01,2015-05-23 13:15:00,
2015-05-23 06:20:00,54.9,50.2,30.05,ENE,59,0.0,0.0,84,0.00,,---,0.00,VWS V14.01,2015-05-23 13:20:00,
2015-05-23 06:25:00,54.9,50.2,30.05,ENE,58,0.0,0.0,84,0.00,,---,0.00,VWS V14.01,2015-05-23 13:25:00,
2015-05-23 06:30:00,55.0,50.3,30.05,ENE,59,0.0,0.0,84,0.00,,---,0.00,VWS V14.01,2015-05-23 13:30:00,
2015-05-23 06:35:00,55.0,50.3,30.06,ENE,58,0.0,0.0,84,0.00,,---,0.00,VWS V14.01,2015-05-23 13:35:00,
2015-05-23 06:40:00,55.0,50.3,30.06,ENE,59,0.0,0.0,84,0.00,,---,0.00,VWS V14.01,2015-05-23 13:40:00,
2015-05-23 06:45:00,55.1,50.4,30.06,ENE,58,0.0,0.0,84,0.00,,---,0.00,VWS V14.01,2015-05-23 13:45:00,
2015-05-23 06:50:00,55.3,50.6,30.06,ENE,57,0.0,2.0,84,0.00,,---,0.00,VWS V14.01,2015-05-23 13:50:00,
2015-05-23 06:55:00,55.3,50.6,30.06,ENE,58,0.0,2.0,84,0.00,,---,0.00,VWS V14.01,2015-05-23 13:55:00,
2015-05-23 07:00:00,55.5,50.8,30.06,ENE,57,0.0,2.0,84,0.00,,---,0.00,VWS V14.01,2015-05-23 14:00:00,
2015-05-23 07:05:00,55.6,50.8,30.06,ENE,59,0.0,3.0,84,0.00,,---,0.00,VWS V14.01,2015-05-23 14:05:00,
2015-05-23 07:10:00,55.8,51.0,30.06,SE,140,2.0,4.0,84,0.00,,---,0.00,VWS V14.01,2015-05-23 14:10:00,
2015-05-23 07:15:00,55.9,50.8,30.06,SE,140,0.0,4.0,83,0.00,,---,0.00,VWS V14.01,2015-05-23 14:15:00,
2015-05-23 07:20:00,56.0,51.2,30.07,SE,140,0.0,0.0,84,0.00,,---,0.00,VWS V14.01,2015-05-23 14:20:00,
2015-05-23 07:25:00,56.1,51.3,30.06,SE,140,0.0,3.0,84,0.00,,---,0.00,VWS V14.01,2015-05-23 14:25:00,
2015-05-23 07:30:00,56.2,51.4,30.07,SE,140,0.0,3.0,84,0.00,,---,0.00,VWS V14.01,2015-05-23 14:30:00,
2015-05-23 07:35:00,56.2,51.4,30.07,SE,140,0.0,3.0,84,0.00,,---,0.00,VWS V14.01,2015-05-23 14:35:00,
2015-05-23 07:40:00,56.3,51.5,30.07,SE,139,0.0,3.0,84,0.00,,---,0.00,VWS V14.01,2015-05-23 14:40:00,
2015-05-23 07:45:00,56.4,51.6,30.07,SE,139,0.0,3.0,84,0.00,,---,0.00,VWS V14.01,2015-05-23 14:45:00,
2015-05-23 07:50:00,56.5,51.7,30.07,SE,140,0.0,0.0,84,0.00,,---,0.00,VWS V14.01,2015-05-23 14:50:00,
2015-05-23 07:55:00,56.7,51.9,30.07,SE,139,2.0,2.0,84,0.00,,---,0.00,VWS V14.01,2015-05-23 14:55:00,
2015-05-23 08:00:00,56.9,52.1,30.07,SE,140,0.0,2.0,84,0.00,,---,0.00,VWS V14.01,2015-05-23 15:00:00,
2015-05-23 08:05:00,57.0,52.2,30.07,SE,139,0.0,0.0,84,0.00,,---,0.00,VWS V14.01,2015-05-23 15:05:00,
2015-05-23 08:10:00,57.2,52.1,30.07,SE,140,0.0,0.0,83,0.00,,---,0.00,VWS V14.01,2015-05-23 15:10:00,
2015-05-23 08:15:00,57.5,52.4,30.07,SE,140,0.0,0.0,83,0.00,,---,0.00,VWS V14.01,2015-05-23 15:15:00,
2015-05-23 08:20:00,57.7,52.6,30.07,SE,138,0.0,0.0,83,0.00,,---,0.00,VWS V14.01,2015-05-23 15:20:00,
2015-05-23 08:25:00,58.0,52.5,30.07,SE,138,2.0,2.0,82,0.00,,---,0.00,VWS V14.01,2015-05-23 15:25:00,
2015-05-23 08:30:00,58.4,52.9,30.08,SE,134,2.0,3.0,82,0.00,,---,0.00,VWS V14.01,2015-05-23 15:30:00,
2015-05-23 08:35:00,59.0,53.5,30.08,ENE,65,3.0,4.0,82,0.00,,---,0.00,VWS V14.01,2015-05-23 15:35:00,
2015-05-23 08:40:00,59.4,53.6,30.08,ENE,65,0.0,4.0,81,0.00,,---,0.00,VWS V14.01,2015-05-23 15:40:00,
2015-05-23 08:45:00,59.6,53.1,30.07,ENE,65,1.0,4.0,79,0.00,,---,0.00,VWS V14.01,2015-05-23 15:45:00,
2015-05-23 08:50:00,59.8,53.3,30.07,ENE,66,0.0,1.0,79,0.00,,---,0.00,VWS V14.01,2015-05-23 15:50:00,
2015-05-23 08:55:00,60.0,53.1,30.07,ENE,69,2.0,2.0,78,0.00,,---,0.00,VWS V14.01,2015-05-23 15:55:00,
2015-05-23 09:00:00,60.0,52.4,30.07,East,99,0.0,2.0,76,0.00,,---,0.00,VWS V14.01,2015-05-23 16:00:00,
2015-05-23 09:05:00,60.2,52.6,30.07,East,99,0.0,0.0,76,0.00,,---,0.00,VWS V14.01,2015-05-23 16:05:00,
2015-05-23 09:10:00,60.4,52.8,30.07,ESE,117,1.0,3.0,76,0.00,,---,0.00,VWS V14.01,2015-05-23 16:10:00,
2015-05-23 09:15:00,60.3,52.0,30.07,ESE,117,0.0,3.0,74,0.00,,---,0.00,VWS V14.01,2015-05-23 16:15:00,
2015-05-23 09:20:00,60.3,52.3,30.07,ESE,117,0.0,3.0,75,0.00,,---,0.00,VWS V14.01,2015-05-23 16:20:00,
2015-05-23 09:25:00,60.4,52.5,30.07,South,172,1.0,4.0,75,0.00,,---,0.00,VWS V14.01,2015-05-23 16:25:00,
2015-05-23 09:30:00,60.5,52.5,30.06,South,179,0.0,4.0,75,0.00,,---,0.00,VWS V14.01,2015-05-23 16:30:00,
2015-05-23 09:35:00,60.7,52.0,30.06,SW,221,0.0,6.0,73,0.00,,---,0.00,VWS V14.01,2015-05-23 16:35:00,
2015-05-23 09:40:00,60.8,52.1,30.07,SW,214,3.0,6.0,73,0.00,,---,0.00,VWS V14.01,2015-05-23 16:40:00,
2015-05-23 09:45:00,61.2,52.5,30.07,SW,232,5.0,8.0,73,0.00,,---,0.00,VWS V14.01,2015-05-23 16:45:00,
2015-05-23 09:50:00,61.5,53.5,30.06,SSW,198,7.0,11.0,75,0.00,,---,0.00,VWS V14.01,2015-05-23 16:50:00,
2015-05-23 09:55:00,61.2,53.9,30.07,SW,214,8.0,11.0,77,0.00,,---,0.00,VWS V14.01,2015-05-23 16:55:00,
2015-05-23 09:59:00,60.7,53.5,30.07,SSW,200,6.0,11.0,77,0.00,,---,0.00,VWS V14.01,2015-05-23 16:59:00,
2015-05-23 10:04:00,60.1,53.2,30.06,SW,236,7.0,10.0,78,0.00,,---,0.00,VWS V14.01,2015-05-23 17:04:00,
2015-05-23 10:10:00,59.8,53.3,30.07,SW,229,9.0,10.0,79,0.00,,---,0.00,VWS V14.01,2015-05-23 17:10:00,
2015-05-23 10:15:00,59.7,53.2,30.07,SW,219,4.0,10.0,79,0.00,,---,0.00,VWS V14.01,2015-05-23 17:15:00,
2015-05-23 10:19:00,59.7,53.5,30.07,South,172,6.0,7.0,80,0.00,,---,0.00,VWS V14.01,2015-05-23 17:19:00,
2015-05-23 10:24:00,59.7,53.5,30.06,WSW,241,3.0,8.0,80,0.00,,---,0.00,VWS V14.01,2015-05-23 17:24:00,
2015-05-23 10:29:00,59.6,53.4,30.06,WSW,241,2.0,8.0,80,0.00,,---,0.00,VWS V14.01,2015-05-23 17:29:00,
2015-05-23 10:34:00,59.6,53.4,30.06,SW,221,2.0,7.0,80,0.00,,---,0.00,VWS V14.01,2015-05-23 17:34:00,
2015-05-23 10:39:00,59.8,53.3,30.07,SE,144,3.0,7.0,79,0.00,,---,0.00,VWS V14.01,2015-05-23 17:39:00,
2015-05-23 10:44:00,60.0,53.1,30.06,SSW,207,0.0,7.0,78,0.00,,---,0.00,VWS V14.01,2015-05-23 17:44:00,
2015-05-23 10:54:00,61.6,53.6,30.06,SE,142,0.0,7.0,75,0.00,,---,0.00,VWS V14.01,2015-05-23 17:54:00,
2015-05-23 10:59:00,62.0,53.6,30.06,SSE,148,7.0,9.0,74,0.00,,---,0.00,VWS V14.01,2015-05-23 17:59:00,
2015-05-23 11:04:00,62.3,53.5,30.07,South,182,3.0,7.0,73,0.00,,---,0.00,VWS V14.01,2015-05-23 18:04:00,
2015-05-23 11:09:00,62.5,53.7,30.06,South,187,5.0,7.0,73,0.00,,---,0.00,VWS V14.01,2015-05-23 18:09:00,
2015-05-23 11:14:00,62.7,53.5,30.07,SSW,202,5.0,9.0,72,0.00,,---,0.00,VWS V14.01,2015-05-23 18:14:00,
2015-05-23 11:19:00,62.8,53.3,30.07,SSE,164,4.0,5.0,71,0.00,,---,0.00,VWS V14.01,2015-05-23 18:19:00,
2015-05-23 11:24:00,62.8,53.7,30.06,South,171,1.0,8.0,72,0.00,,---,0.00,VWS V14.01,2015-05-23 18:24:00,
2015-05-23 11:29:00,62.7,53.5,30.07,SSW,209,5.0,10.0,72,0.00,,---,0.00,VWS V14.01,2015-05-23 18:29:00,
2015-05-23 11:34:00,62.7,53.5,30.07,SSW,201,4.0,9.0,72,0.00,,---,0.00,VWS V14.01,2015-05-23 18:34:00,
2015-05-23 11:39:00,62.7,53.9,30.07,SSW,212,5.0,9.0,73,0.00,,---,0.00,VWS V14.01,2015-05-23 18:39:00,
2015-05-23 11:44:00,62.6,53.1,30.07,SW,232,2.0,9.0,71,0.00,,---,0.00,VWS V14.01,2015-05-23 18:44:00,
2015-05-23 11:49:00,62.9,54.1,30.06,WSW,248,2.0,6.0,73,0.00,,---,0.00,VWS V14.01,2015-05-23 18:49:00,
2015-05-23 11:54:00,63.1,53.9,30.06,WSW,237,3.0,7.0,72,0.00,,---,0.00,VWS V14.01,2015-05-23 18:54:00,
2015-05-23 11:59:00,63.1,53.9,30.06,SSW,206,1.0,7.0,72,0.00,,---,0.00,VWS V14.01,2015-05-23 18:59:00,
2015-05-23 12:04:00,63.0,53.5,30.06,SSW,213,4.0,7.0,71,0.00,,---,0.00,VWS V14.01,2015-05-23 19:04:00,
2015-05-23 12:09:00,63.0,53.8,30.06,SW,232,4.0,7.0,72,0.00,,---,0.00,VWS V14.01,2015-05-23 19:09:00,
2015-05-23 12:14:00,62.9,53.8,30.06,SW,215,2.0,7.0,72,0.00,,---,0.00,VWS V14.01,2015-05-23 19:14:00,
2015-05-23 12:19:00,62.6,53.1,30.06,South,179,4.0,6.0,71,0.00,,---,0.00,VWS V14.01,2015-05-23 19:19:00,
2015-05-23 12:24:00,62.3,53.2,30.06,WSW,241,4.0,7.0,72,0.00,,---,0.00,VWS V14.01,2015-05-23 19:24:00,
2015-05-23 12:29:00,62.0,52.9,30.06,SSW,199,3.0,8.0,72,0.00,,---,0.00,VWS V14.01,2015-05-23 19:29:00,
2015-05-23 12:34:00,61.7,52.6,30.06,South,180,0.0,6.0,72,0.00,,---,0.00,VWS V14.01,2015-05-23 19:34:00,
2015-05-23 12:39:00,61.6,52.9,30.06,SSW,211,0.0,6.0,73,0.00,,---,0.00,VWS V14.01,2015-05-23 19:39:00,
2015-05-23 12:44:00,61.7,53.0,30.06,SE,142,5.0,6.0,73,0.00,,---,0.00,VWS V14.01,2015-05-23 19:44:00,
2015-05-23 12:49:00,61.8,52.3,30.06,SSE,163,0.0,4.0,71,0.00,,---,0.00,VWS V14.01,2015-05-23 19:49:00,
2015-05-23 12:54:00,62.0,52.5,30.06,SE,136,0.0,4.0,71,0.00,,---,0.00,VWS V14.01,2015-05-23 19:54:00,
2015-05-23 12:59:00,62.2,52.3,30.06,SSE,153,0.0,4.0,70,0.00,,---,0.00,VWS V14.01,2015-05-23 19:59:00,
2015-05-23 13:04:00,62.3,52.4,30.06,SSE,153,0.0,1.0,70,0.00,,---,0.00,VWS V14.01,2015-05-23 20:04:00,
2015-05-23 13:09:00,62.6,52.7,30.06,SSE,148,0.0,2.0,70,0.00,,---,0.00,VWS V14.01,2015-05-23 20:09:00,
2015-05-23 13:14:00,63.1,52.8,30.06,ESE,106,0.0,4.0,69,0.00,,---,0.00,VWS V14.01,2015-05-23 20:14:00,
2015-05-23 13:19:00,63.8,53.8,30.05,East,84,5.0,5.0,70,0.00,,---,0.00,VWS V14.01,2015-05-23 20:19:00,
2015-05-23 13:24:00,64.3,53.9,30.05,ENE,58,0.0,5.0,69,0.00,,---,0.00,VWS V14.01,2015-05-23 20:24:00,
2015-05-23 13:29:00,64.8,53.6,30.05,ENE,57,2.0,5.0,67,0.00,,---,0.00,VWS V14.01,2015-05-23 20:29:00,
2015-05-23 13:34:00,65.0,53.4,30.05,ENE,58,0.0,2.0,66,0.00,,---,0.00,VWS V14.01,2015-05-23 20:34:00,
2015-05-23 13:39:00,64.8,53.2,30.05,NE,50,0.0,2.0,66,0.00,,---,0.00,VWS V14.01,2015-05-23 20:39:00,
2015-05-23 13:44:00,64.6,53.4,30.05,NE,50,2.0,2.0,67,0.00,,---,0.00,VWS V14.01,2015-05-23 20:44:00,
2015-05-23 13:49:00,64.3,53.1,30.04,SSW,211,5.0,6.0,67,0.00,,---,0.00,VWS V14.01,2015-05-23 20:49:00,
2015-05-23 13:54:00,63.8,53.0,30.04,SW,223,1.0,7.0,68,0.00,,---,0.00,VWS V14.01,2015-05-23 20:54:00,
2015-05-23 13:59:00,63.3,53.0,30.05,SSW,200,7.0,10.0,69,0.00,,---,0.00,VWS V14.01,2015-05-23 20:59:00,
2015-05-23 14:04:00,62.9,52.6,30.05,SSW,200,4.0,6.0,69,0.00,,---,0.00,VWS V14.01,2015-05-23 21:04:00,
2015-05-23 14:09:00,62.9,53.4,30.05,SW,221,5.0,8.0,71,0.00,,---,0.00,VWS V14.01,2015-05-23 21:09:00,
2015-05-23 14:14:00,63.0,53.1,30.04,West,263,2.0,8.0,70,0.00,,---,0.00,VWS V14.01,2015-05-23 21:14:00,
2015-05-23 14:19:00,63.3,53.8,30.04,SW,217,7.0,9.0,71,0.00,,---,0.00,VWS V14.01,2015-05-23 21:19:00,
2015-05-23 14:24:00,63.4,53.1,30.04,SW,220,3.0,9.0,69,0.00,,---,0.00,VWS V14.01,2015-05-23 21:24:00,
2015-05-23 14:29:00,63.4,53.1,30.04,WSW,245,6.0,9.0,69,0.00,,---,0.00,VWS V14.01,2015-05-23 21:29:00,
2015-05-23 14:34:00,63.4,53.1,30.04,SW,223,4.0,7.0,69,0.00,,---,0.00,VWS V14.01,2015-05-23 21:34:00,
2015-05-23 14:39:00,63.3,53.0,30.04,WSW,256,0.0,7.0,69,0.00,,---,0.00,VWS V14.01,2015-05-23 21:39:00,
2015-05-23 14:44:00,63.3,53.4,30.04,SW,236,0.0,7.0,70,0.00,,---,0.00,VWS V14.01,2015-05-23 21:44:00,
2015-05-23 14:49:00,63.4,53.1,30.04,SW,227,5.0,5.0,69,0.00,,---,0.00,VWS V14.01,2015-05-23 21:49:00,
2015-05-23 14:54:00,63.3,52.6,30.04,WSW,238,3.0,7.0,68,0.00,,---,0.00,VWS V14.01,2015-05-23 21:54:00,
2015-05-23 14:59:00,63.2,52.9,30.03,WSW,241,6.0,7.0,69,0.00,,---,0.00,VWS V14.01,2015-05-23 21:59:00,
2015-05-23 15:09:00,63.1,52.8,30.03,SW,234,3.0,10.0,69,0.00,,---,0.00,VWS V14.01,2015-05-23 22:09:00,
2015-05-23 15:14:00,63.1,52.8,30.04,SW,234,0.0,10.0,69,0.00,,---,0.00,VWS V14.01,2015-05-23 22:14:00,
2015-05-23 15:19:00,63.1,52.8,30.03,WSW,258,4.0,4.0,69,0.00,,---,0.00,VWS V14.01,2015-05-23 22:19:00,
2015-05-23 15:24:00,63.1,52.8,30.03,SW,219,4.0,4.0,69,0.00,,---,0.00,VWS V14.01,2015-05-23 22:24:00,
2015-05-23 15:29:00,63.1,52.8,30.02,SW,215,3.0,5.0,69,0.00,,---,0.00,VWS V14.01,2015-05-23 22:29:00,
2015-05-23 15:34:00,63.2,52.9,30.02,SW,227,0.0,2.0,69,0.00,,---,0.00,VWS V14.01,2015-05-23 22:34:00,
2015-05-23 15:39:00,63.6,53.3,30.02,SE,130,0.0,6.0,69,0.00,,---,0.00,VWS V14.01,2015-05-23 22:39:00,
2015-05-23 15:44:00,64.0,52.8,30.02,SE,134,0.0,6.0,67,0.00,,---,0.00,VWS V14.01,2015-05-23 22:44:00,
2015-05-23 15:49:00,64.3,53.1,30.02,ESE,112,1.0,4.0,67,0.00,,---,0.00,VWS V14.01,2015-05-23 22:49:00,
2015-05-23 15:54:00,64.6,53.4,30.01,SE,124,0.0,4.0,67,0.00,,---,0.00,VWS V14.01,2015-05-23 22:54:00,
2015-05-23 15:59:00,65.0,53.4,30.01,SE,130,0.0,4.0,66,0.00,,---,0.00,VWS V14.01,2015-05-23 22:59:00,
2015-05-23 16:04:00,65.4,53.3,30.01,SSW,194,3.0,4.0,65,0.00,,---,0.00,VWS V14.01,2015-05-23 23:04:00,
2015-05-23 16:09:00,65.7,54.0,30.01,SSW,203,0.0,4.0,66,0.00,,---,0.00,VWS V14.01,2015-05-23 23:09:00,
2015-05-23 16:14:00,65.9,53.8,30.00,East,96,0.0,4.0,65,0.00,,---,0.00,VWS V14.01,2015-05-23 23:14:00,
2015-05-23 16:19:00,66.0,53.5,30.00,SSE,156,0.0,7.0,64,0.00,,---,0.00,VWS V14.01,2015-05-23 23:19:00,
2015-05-23 16:24:00,66.5,54.0,30.00,ENE,75,0.0,7.0,64,0.00,,---,0.00,VWS V14.01,2015-05-23 23:24:00,
2015-05-23 16:29:00,67.5,54.5,30.00,ENE,75,0.0,7.0,63,0.00,,---,0.00,VWS V14.01,2015-05-23 23:29:00,
2015-05-23 16:34:00,68.4,54.9,30.00,SSE,165,0.0,4.0,62,0.00,,---,0.00,VWS V14.01,2015-05-23 23:34:00,
2015-05-23 16:39:00,68.4,54.4,30.00,South,182,0.0,4.0,61,0.00,,---,0.00,VWS V14.01,2015-05-23 23:39:00,
2015-05-23 16:44:00,67.8,53.9,30.00,SW,222,3.0,4.0,61,0.00,,---,0.00,VWS V14.01,2015-05-23 23:44:00,
2015-05-23 16:49:00,67.1,54.1,30.00,SSW,210,0.0,4.0,63,0.00,,---,0.00,VWS V14.01,2015-05-23 23:49:00,
2015-05-23 16:54:00,66.5,54.0,30.00,SSW,210,4.0,6.0,64,0.00,,---,0.00,VWS V14.01,2015-05-23 23:54:00,
2015-05-23 16:59:00,65.9,53.8,30.00,SSW,210,6.0,7.0,65,0.00,,---,0.00,VWS V14.01,2015-05-23 23:59:00,
2015-05-23 17:04:00,65.6,53.5,29.99,SW,220,5.0,10.0,65,0.00,,---,0.00,VWS V14.01,2015-05-24 00:04:00,
2015-05-23 17:09:00,65.5,53.4,29.99,SSW,213,7.0,10.0,65,0.00,,---,0.00,VWS V14.01,2015-05-24 00:09:00,
2015-05-23 17:16:00,65.7,53.6,29.99,WSW,244,5.0,9.0,65,0.00,,---,0.00,VWS V14.01,2015-05-24 00:16:00,
2015-05-23 17:21:00,65.5,53.0,29.99,South,190,7.0,11.0,64,0.00,,---,0.00,VWS V14.01,2015-05-24 00:21:00,
2015-05-23 17:26:00,65.3,53.2,29.99,South,175,1.0,11.0,65,0.00,,---,0.00,VWS V14.01,2015-05-24 00:26:00,
2015-05-23 17:31:00,65.2,53.2,29.99,WSW,238,4.0,7.0,65,0.00,,---,0.00,VWS V14.01,2015-05-24 00:31:00,
2015-05-23 17:36:00,65.3,53.7,29.99,SSW,198,5.0,11.0,66,0.00,,---,0.00,VWS V14.01,2015-05-24 00:36:00,
2015-05-23 17:41:00,64.9,52.9,29.99,SW,228,1.0,11.0,65,0.00,,---,0.00,VWS V14.01,2015-05-24 00:41:00,
2015-05-23 17:46:00,64.5,52.5,29.99,SW,225,3.0,9.0,65,0.00,,---,0.00,VWS V14.01,2015-05-24 00:46:00,
2015-05-23 17:51:00,64.0,52.4,29.99,South,187,1.0,9.0,66,0.00,,---,0.00,VWS V14.01,2015-05-24 00:51:00,
2015-05-23 17:56:00,63.6,52.5,30.00,SW,223,4.0,10.0,67,0.00,,---,0.00,VWS V14.01,2015-05-24 00:56:00,
2015-05-23 18:01:00,63.2,52.1,29.99,SW,229,5.0,6.0,67,0.00,,---,0.00,VWS V14.01,2015-05-24 01:01:00,
2015-05-23 18:06:00,62.9,52.2,30.00,SSW,192,3.0,8.0,68,0.00,,---,0.00,VWS V14.01,2015-05-24 01:06:00,
2015-05-23 18:11:00,62.8,52.1,30.00,SW,221,4.0,9.0,68,0.00,,---,0.00,VWS V14.01,2015-05-24 01:11:00,
2015-05-23 18:16:00,62.5,51.8,30.00,WSW,249,3.0,3.0,68,0.00,,---,0.00,VWS V14.01,2015-05-24 01:16:00,
2015-05-23 18:21:00,62.3,51.6,30.00,SW,225,9.0,9.0,68,0.00,,---,0.00,VWS V14.01,2015-05-24 01:21:00,
2015-05-23 18:26:00,61.9,51.6,30.00,WSW,238,5.0,9.0,69,0.00,,---,0.00,VWS V14.01,2015-05-24 01:26:00,
2015-05-23 18:31:00,61.6,51.7,30.00,SW,226,6.0,6.0,70,0.00,,---,0.00,VWS V14.01,2015-05-24 01:31:00,
2015-05-23 18:36:00,61.4,51.5,30.00,SW,236,4.0,9.0,70,0.00,,---,0.00,VWS V14.01,2015-05-24 01:36:00,
2015-05-23 18:41:00,61.2,51.3,30.00,South,186,5.0,9.0,70,0.00,,---,0.00,VWS V14.01,2015-05-24 01:41:00,
2015-05-23 18:46:00,60.9,51.1,30.00,SSW,200,3.0,6.0,70,0.00,,---,0.00,VWS V14.01,2015-05-24 01:46:00,
2015-05-23 18:51:00,60.8,51.3,30.00,SSW,196,3.0,6.0,71,0.00,,---,0.00,VWS V14.01,2015-05-24 01:51:00,
2015-05-23 18:56:00,60.7,51.2,30.01,SW,218,0.0,6.0,71,0.00,,---,0.00,VWS V14.01,2015-05-24 01:56:00,
2015-05-23 19:01:00,60.6,51.2,30.00,SSE,150,2.0,3.0,71,0.00,,---,0.00,VWS V14.01,2015-05-24 02:01:00,
2015-05-23 19:06:00,60.6,51.2,30.01,South,189,4.0,4.0,71,0.00,,---,0.00,VWS V14.01,2015-05-24 02:06:00,
2015-05-23 19:11:00,60.6,51.5,30.00,SW,223,3.0,5.0,72,0.00,,---,0.00,VWS V14.01,2015-05-24 02:11:00,
2015-05-23 19:16:00,60.5,51.4,30.01,South,190,0.0,5.0,72,0.00,,---,0.00,VWS V14.01,2015-05-24 02:16:00,
2015-05-23 19:21:00,60.4,51.3,30.01,SSW,198,3.0,6.0,72,0.00,,---,0.00,VWS V14.01,2015-05-24 02:21:00,
2015-05-23 19:26:00,60.2,51.2,30.01,WSW,245,2.0,6.0,72,0.00,,---,0.00,VWS V14.01,2015-05-24 02:26:00,
2015-05-23 19:31:00,60.0,51.0,30.01,SW,227,2.0,5.0,72,0.00,,---,0.00,VWS V14.01,2015-05-24 02:31:00,
2015-05-23 19:36:00,59.7,51.0,30.01,South,182,0.0,5.0,73,0.00,,---,0.00,VWS V14.01,2015-05-24 02:36:00,
2015-05-23 19:41:00,59.5,50.8,30.02,South,190,3.0,5.0,73,0.00,,---,0.00,VWS V14.01,2015-05-24 02:41:00,
2015-05-23 19:46:00,59.1,50.8,30.02,South,188,0.0,3.0,74,0.00,,---,0.00,VWS V14.01,2015-05-24 02:46:00,
2015-05-23 19:51:00,59.0,50.7,30.02,South,176,3.0,5.0,74,0.00,,---,0.00,VWS V14.01,2015-05-24 02:51:00,
2015-05-23 19:56:00,59.0,50.7,30.02,South,181,0.0,5.0,74,0.00,,---,0.00,VWS V14.01,2015-05-24 02:56:00,
2015-05-23 20:01:00,58.9,51.0,30.01,SSW,205,0.0,0.0,75,0.00,,---,0.00,VWS V14.01,2015-05-24 03:01:00,
2015-05-23 20:06:00,58.6,51.1,30.02,SSW,196,0.0,5.0,76,0.00,,---,0.00,VWS V14.01,2015-05-24 03:06:00,
2015-05-23 20:11:00,58.4,50.9,30.02,South,185,0.0,5.0,76,0.00,,---,0.00,VWS V14.01,2015-05-24 03:11:00,
2015-05-23 20:16:00,58.2,50.7,30.02,SSW,192,3.0,3.0,76,0.00,,---,0.00,VWS V14.01,2015-05-24 03:16:00,
2015-05-23 20:21:00,58.0,50.8,30.02,South,190,2.0,4.0,77,0.00,,---,0.00,VWS V14.01,2015-05-24 03:21:00,
2015-05-23 20:26:00,57.9,50.7,30.02,South,175,0.0,5.0,77,0.00,,---,0.00,VWS V14.01,2015-05-24 03:26:00,
2015-05-23 20:31:00,57.8,51.0,30.02,SW,217,2.0,3.0,78,0.00,,---,0.00,VWS V14.01,2015-05-24 03:31:00,
2015-05-23 20:36:00,57.7,51.2,30.02,SSW,205,0.0,3.0,79,0.00,,---,0.00,VWS V14.01,2015-05-24 03:36:00,
2015-05-23 20:41:00,57.6,50.8,30.02,South,191,0.0,5.0,78,0.00,,---,0.00,VWS V14.01,2015-05-24 03:41:00,
2015-05-23 20:46:00,57.5,51.0,30.02,South,181,0.0,0.0,79,0.00,,---,0.00,VWS V14.01,2015-05-24 03:46:00,